VIS870 EDDN-EBCI

Flight info

Callsign VIS870
Flight time 1h 38m
Altitude 24000
Route SUKAD1G SUKAD DCT COSJE T892 RIDSU Z114 ADENU L608 BATTY
Aircraft B748/H-SDE3FGHIM1M2RWXY/LB1

Departure

Time 2026-05-05 09:53
Airport Nuremberg Airport (EDDN)

Arrival

Time 2026-05-05 11:32
Airport Brussels South Charleroi Airport (EBCI)
Time Latitude Longitude Altitude Speed Heading
2026-05-05 09:05 49.49466 11.08372 1045 ft 0 kts 188°
2026-05-05 09:41 49.49470 11.08373 1045 ft 2 kts 188°
2026-05-05 09:41 49.49481 11.08376 1047 ft 2 kts 188°
2026-05-05 09:42 49.49498 11.08380 1048 ft 2 kts 188°
2026-05-05 09:42 49.49521 11.08385 1051 ft 3 kts 188°
2026-05-05 09:42 49.49539 11.08390 1051 ft 3 kts 188°
2026-05-05 09:42 49.49551 11.08392 1052 ft 3 kts 188°
2026-05-05 09:43 49.49575 11.08398 1052 ft 3 kts 188°
2026-05-05 09:43 49.49594 11.08403 1052 ft 3 kts 188°
2026-05-05 09:43 49.49606 11.08405 1052 ft 3 kts 188°
2026-05-05 09:43 49.49625 11.08410 1052 ft 3 kts 188°
2026-05-05 09:44 49.49644 11.08414 1052 ft 3 kts 188°
2026-05-05 09:44 49.49652 11.08417 1052 ft 0 kts 188°
2026-05-05 09:48 49.49644 11.08415 1052 ft 4 kts 188°
2026-05-05 09:48 49.49628 11.08422 1049 ft 2 kts 151°
2026-05-05 09:48 49.49610 11.08474 1050 ft 10 kts 104°
2026-05-05 09:49 49.49596 11.08632 1052 ft 16 kts 97°
2026-05-05 09:49 49.49580 11.08793 1054 ft 15 kts 100°
2026-05-05 09:49 49.49560 11.08964 1056 ft 17 kts 97°
2026-05-05 09:49 49.49542 11.09160 1056 ft 20 kts 98°
2026-05-05 09:50 49.49538 11.09359 1060 ft 16 kts 70°
2026-05-05 09:50 49.49589 11.09479 1062 ft 13 kts 51°
2026-05-05 09:50 49.49597 11.09493 1062 ft 0 kts 50°
2026-05-05 09:51 49.49606 11.09510 1063 ft 5 kts 51°
2026-05-05 09:51 49.49639 11.09563 1065 ft 4 kts 35°
2026-05-05 09:51 49.49658 11.09570 1065 ft 2 kts
2026-05-05 09:52 49.49682 11.09556 1066 ft 4 kts 326°
2026-05-05 09:52 49.49699 11.09517 1066 ft 6 kts 292°
2026-05-05 09:52 49.49706 11.09473 1064 ft 0 kts 279°
2026-05-05 09:53 49.49706 11.09471 1064 ft 2 kts 279°
2026-05-05 09:53 49.49769 11.08839 1055 ft 122 kts 279°
2026-05-05 09:53 49.49934 11.07043 1220 ft 201 kts 279°
2026-05-05 09:53 49.50154 11.04744 1668 ft 230 kts 280°
2026-05-05 09:54 49.50396 11.02407 2684 ft 224 kts 280°
2026-05-05 09:54 49.50646 10.99940 3156 ft 247 kts 279°
2026-05-05 09:54 49.50908 10.97237 4015 ft 265 kts 278°
2026-05-05 09:54 49.51169 10.94414 5240 ft 268 kts 274°
2026-05-05 09:55 49.50955 10.91573 6443 ft 270 kts 247°
2026-05-05 09:55 49.50179 10.88925 7538 ft 274 kts 242°
2026-05-05 09:55 49.49327 10.86288 8636 ft 277 kts 242°
2026-05-05 09:55 49.48481 10.83596 9574 ft 285 kts 242°
2026-05-05 09:56 49.47641 10.80847 9948 ft 286 kts 243°
2026-05-05 09:56 49.46592 10.78298 9978 ft 279 kts 222°
2026-05-05 09:56 49.44999 10.76711 10482 ft 274 kts 200°
2026-05-05 09:56 49.43149 10.76038 11241 ft 280 kts 193°
2026-05-05 09:57 49.41288 10.75144 12011 ft 283 kts 207°
2026-05-05 09:57 49.39785 10.73203 12845 ft 288 kts 233°
2026-05-05 09:57 49.39004 10.70372 13690 ft 295 kts 259°
2026-05-05 09:57 49.39112 10.67197 14457 ft 306 kts 284°
2026-05-05 09:58 49.40125 10.64293 15241 ft 316 kts 309°
2026-05-05 09:58 49.41871 10.62193 16052 ft 325 kts 330°
2026-05-05 09:58 49.43975 10.60841 16845 ft 331 kts 338°
2026-05-05 09:58 49.46151 10.59641 17644 ft 334 kts 336°
2026-05-05 09:59 49.48259 10.58242 18392 ft 335 kts 332°
2026-05-05 09:59 49.50355 10.56639 19106 ft 337 kts 331°
2026-05-05 09:59 49.52474 10.55072 19826 ft 339 kts 332°
2026-05-05 09:59 49.54481 10.53226 20587 ft 333 kts 313°
2026-05-05 10:00 49.55879 10.50468 21390 ft 323 kts 292°
2026-05-05 10:00 49.56824 10.47355 22184 ft 320 kts 290°
2026-05-05 10:00 49.57702 10.44229 22973 ft 316 kts 289°
2026-05-05 10:00 49.58570 10.41128 23618 ft 317 kts 290°
2026-05-05 10:01 49.59476 10.37965 23846 ft 327 kts 290°
2026-05-05 10:01 49.60394 10.34786 23834 ft 322 kts 290°
2026-05-05 10:01 49.61290 10.31658 23836 ft 324 kts 290°
2026-05-05 10:01 49.62194 10.28474 23844 ft 324 kts 290°
2026-05-05 10:02 49.63098 10.25293 23842 ft 324 kts 290°
2026-05-05 10:02 49.64003 10.22115 23846 ft 324 kts 290°
2026-05-05 10:02 49.64908 10.18930 23851 ft 324 kts 290°
2026-05-05 10:02 49.65813 10.15740 23852 ft 324 kts 290°
2026-05-05 10:03 49.66715 10.12553 23855 ft 324 kts 290°
2026-05-05 10:03 49.67618 10.09361 23853 ft 325 kts 290°
2026-05-05 10:03 49.68508 10.06212 23857 ft 324 kts 290°
2026-05-05 10:03 49.69408 10.03022 23857 ft 324 kts 290°
2026-05-05 10:04 49.70306 9.99832 23865 ft 324 kts 290°
2026-05-05 10:04 49.71204 9.96640 23863 ft 324 kts 289°
2026-05-05 10:04 49.71786 9.93327 23885 ft 317 kts 271°
2026-05-05 10:04 49.71908 9.89918 23877 ft 318 kts 269°
2026-05-05 10:05 49.71980 9.86510 23866 ft 317 kts 269°
2026-05-05 10:05 49.72057 9.83100 23874 ft 318 kts 269°
2026-05-05 10:05 49.72154 9.79689 23871 ft 318 kts 270°
2026-05-05 10:05 49.72250 9.76267 23875 ft 319 kts 269°
2026-05-05 10:06 49.72336 9.72895 23870 ft 318 kts 269°
2026-05-05 10:06 49.72422 9.69473 23875 ft 319 kts 269°
2026-05-05 10:06 49.72510 9.66053 23871 ft 319 kts 269°
2026-05-05 10:06 49.72597 9.62631 23873 ft 319 kts 269°
2026-05-05 10:07 49.72682 9.59201 23876 ft 319 kts 269°
2026-05-05 10:07 49.72766 9.55776 23875 ft 319 kts 269°
2026-05-05 10:07 49.72849 9.52345 23868 ft 320 kts 269°
2026-05-05 10:07 49.72931 9.48911 23874 ft 320 kts 269°
2026-05-05 10:08 49.73013 9.45467 23879 ft 320 kts 269°
2026-05-05 10:08 49.73093 9.42033 23875 ft 320 kts 269°
2026-05-05 10:08 49.73171 9.38636 23875 ft 320 kts 269°
2026-05-05 10:08 49.73250 9.35198 23866 ft 320 kts 269°
2026-05-05 10:09 49.73327 9.31761 23862 ft 320 kts 270°
2026-05-05 10:09 49.73403 9.28325 23875 ft 321 kts 269°
2026-05-05 10:09 49.73479 9.24879 23871 ft 321 kts 269°
2026-05-05 10:09 49.73553 9.21424 23879 ft 322 kts 269°
2026-05-05 10:10 49.73627 9.17975 23878 ft 322 kts 269°
2026-05-05 10:10 49.73700 9.14521 23880 ft 321 kts 269°
2026-05-05 10:10 49.73771 9.11069 23868 ft 321 kts 269°
2026-05-05 10:10 49.73840 9.07666 23879 ft 322 kts 269°
2026-05-05 10:11 49.73910 9.04211 23880 ft 322 kts 269°
2026-05-05 10:11 49.73978 9.00748 23880 ft 322 kts 269°
2026-05-05 10:11 49.74046 8.97290 23871 ft 322 kts 269°
2026-05-05 10:11 49.74113 8.93830 23868 ft 322 kts 269°
2026-05-05 10:12 49.74178 8.90371 23877 ft 322 kts 269°
2026-05-05 10:12 49.74242 8.86912 23866 ft 322 kts 269°
2026-05-05 10:12 49.74306 8.83448 23877 ft 322 kts 269°
2026-05-05 10:12 49.74368 8.79984 23873 ft 322 kts 269°
2026-05-05 10:13 49.74429 8.76567 23865 ft 322 kts 269°
2026-05-05 10:13 49.74489 8.73038 23882 ft 338 kts 269°
2026-05-05 10:13 49.74551 8.69294 23887 ft 360 kts 269°
2026-05-05 10:13 49.74618 8.65306 23887 ft 383 kts 270°
2026-05-05 10:14 49.74689 8.61062 23893 ft 406 kts 270°
2026-05-05 10:14 49.74762 8.56593 23892 ft 422 kts 270°
2026-05-05 10:14 49.74834 8.52049 23880 ft 424 kts 270°
2026-05-05 10:14 49.75024 8.47489 23888 ft 427 kts 278°
2026-05-05 10:15 49.75678 8.43066 23871 ft 429 kts 282°
2026-05-05 10:15 49.76405 8.38605 23878 ft 428 kts 282°
2026-05-05 10:15 49.77140 8.34141 23863 ft 428 kts 282°
2026-05-05 10:15 49.77856 8.29676 23867 ft 428 kts 282°
2026-05-05 10:16 49.78567 8.25182 23869 ft 432 kts 282°
2026-05-05 10:16 49.79287 8.20671 23869 ft 431 kts 282°
2026-05-05 10:16 49.80010 8.16165 23864 ft 432 kts 282°
2026-05-05 10:16 49.80728 8.11655 23885 ft 431 kts 282°
2026-05-05 10:17 49.81430 8.07206 23864 ft 431 kts 282°
2026-05-05 10:17 49.82149 8.02699 23868 ft 432 kts 284°
2026-05-05 10:17 49.83007 7.98238 23866 ft 432 kts 284°
2026-05-05 10:17 49.83832 7.93775 23867 ft 432 kts 284°
2026-05-05 10:18 49.84651 7.89299 23867 ft 432 kts 284°
2026-05-05 10:18 49.85488 7.84827 23874 ft 432 kts 284°
2026-05-05 10:18 49.86329 7.80354 23867 ft 432 kts 284°
2026-05-05 10:18 49.87158 7.75886 23871 ft 432 kts 284°
2026-05-05 10:19 49.87982 7.71409 23877 ft 432 kts 283°
2026-05-05 10:19 49.88796 7.66998 23877 ft 432 kts 283°
2026-05-05 10:19 49.89624 7.62518 23880 ft 432 kts 283°
2026-05-05 10:19 49.90447 7.58045 23880 ft 431 kts 283°
2026-05-05 10:20 49.91265 7.53570 23886 ft 431 kts 283°
2026-05-05 10:20 49.92084 7.49090 23888 ft 432 kts 283°
2026-05-05 10:20 49.92903 7.44604 23891 ft 432 kts 283°
2026-05-05 10:20 49.93721 7.40109 23893 ft 433 kts 283°
2026-05-05 10:21 49.94535 7.35625 23895 ft 433 kts 283°
2026-05-05 10:21 49.95350 7.31124 23894 ft 433 kts 283°
2026-05-05 10:21 49.96165 7.26614 23892 ft 433 kts 283°
2026-05-05 10:21 49.96965 7.22175 23896 ft 433 kts 283°
2026-05-05 10:22 49.97775 7.17665 23889 ft 433 kts 283°
2026-05-05 10:22 49.98584 7.13155 23895 ft 434 kts 283°
2026-05-05 10:22 49.99392 7.08638 23887 ft 434 kts 283°
2026-05-05 10:22 50.00198 7.04120 23884 ft 434 kts 283°
2026-05-05 10:23 50.01003 6.99597 23869 ft 434 kts 283°
2026-05-05 10:23 50.01805 6.95077 23859 ft 434 kts 283°
2026-05-05 10:23 50.02711 6.90655 23865 ft 437 kts 291°
2026-05-05 10:23 50.04107 6.86453 23855 ft 439 kts 296°
2026-05-05 10:24 50.05595 6.82274 23306 ft 445 kts 297°
2026-05-05 10:24 50.07101 6.78095 22346 ft 433 kts 297°
2026-05-05 10:24 50.08509 6.74159 21487 ft 398 kts 296°
2026-05-05 10:24 50.09781 6.70560 20607 ft 365 kts 296°
2026-05-05 10:25 50.10976 6.67161 19661 ft 353 kts 296°
2026-05-05 10:25 50.12170 6.63772 18746 ft 364 kts 296°
2026-05-05 10:25 50.13415 6.60246 17834 ft 378 kts 296°
2026-05-05 10:25 50.14683 6.56659 16881 ft 387 kts 296°
2026-05-05 10:26 50.15990 6.52951 15971 ft 393 kts 296°
2026-05-05 10:26 50.17314 6.49188 15105 ft 398 kts 297°
2026-05-05 10:26 50.18741 6.45625 14292 ft 375 kts 307°
2026-05-05 10:26 50.20537 6.42908 13485 ft 351 kts 318°
2026-05-05 10:27 50.22412 6.40471 12639 ft 349 kts 319°
2026-05-05 10:27 50.24267 6.38100 11765 ft 342 kts 319°
2026-05-05 10:27 50.26090 6.35751 10914 ft 338 kts 319°
2026-05-05 10:27 50.27864 6.33443 10083 ft 335 kts 319°
2026-05-05 10:28 50.29649 6.31120 9207 ft 333 kts 319°
2026-05-05 10:28 50.31430 6.28809 8325 ft 330 kts 319°
2026-05-05 10:28 50.33170 6.26551 7869 ft 319 kts 319°
2026-05-05 10:28 50.34824 6.24399 7839 ft 300 kts 319°
2026-05-05 10:29 50.36409 6.22334 7841 ft 296 kts 319°
2026-05-05 10:29 50.38008 6.20247 7836 ft 304 kts 319°
2026-05-05 10:29 50.39679 6.18065 7837 ft 324 kts 319°
2026-05-05 10:29 50.41507 6.15677 7843 ft 353 kts 319°
2026-05-05 10:30 50.43420 6.13178 7864 ft 360 kts 320°
2026-05-05 10:30 50.45322 6.10689 7864 ft 362 kts 320°
2026-05-05 10:30 50.47254 6.08157 7862 ft 362 kts 320°
2026-05-05 10:30 50.49181 6.05630 7846 ft 355 kts 320°
2026-05-05 10:31 50.51027 6.03207 7858 ft 337 kts 320°
2026-05-05 10:31 50.52780 6.00902 7854 ft 321 kts 320°
2026-05-05 10:31 50.54450 5.98706 7875 ft 307 kts 320°
2026-05-05 10:31 50.56068 5.96573 7849 ft 300 kts 320°
2026-05-05 10:32 50.57645 5.94492 7852 ft 290 kts 320°
2026-05-05 10:32 50.59164 5.92489 7861 ft 280 kts 320°
2026-05-05 10:32 50.60611 5.90577 7858 ft 277 kts 320°
2026-05-05 10:32 50.62078 5.88639 7864 ft 275 kts 320°
2026-05-05 10:33 50.63544 5.86691 7865 ft 274 kts 318°
2026-05-05 10:33 50.64701 5.84319 7891 ft 275 kts 292°
2026-05-05 10:33 50.65077 5.81383 7889 ft 276 kts 272°
2026-05-05 10:33 50.65109 5.78363 7888 ft 275 kts 269°
2026-05-05 10:34 50.65114 5.75347 7890 ft 276 kts 271°
2026-05-05 10:34 50.65179 5.72327 7890 ft 276 kts 272°
2026-05-05 10:34 50.65260 5.69343 7893 ft 276 kts 272°
2026-05-05 10:34 50.65327 5.66319 7880 ft 276 kts 271°
2026-05-05 10:35 50.65385 5.63296 7894 ft 276 kts 271°
2026-05-05 10:35 50.65446 5.60266 7894 ft 276 kts 271°
2026-05-05 10:35 50.65509 5.57239 7895 ft 276 kts 271°
2026-05-05 10:35 50.65570 5.54211 7894 ft 277 kts 271°
2026-05-05 10:36 50.65630 5.51181 7880 ft 277 kts 271°
2026-05-05 10:36 50.65689 5.48143 7896 ft 277 kts 272°
2026-05-05 10:36 50.65747 5.45107 7892 ft 277 kts 272°
2026-05-05 10:36 50.65804 5.42118 7878 ft 277 kts 272°
2026-05-05 10:37 50.65861 5.39087 7892 ft 277 kts 272°
2026-05-05 10:37 50.65917 5.36043 7895 ft 277 kts 272°
2026-05-05 10:37 50.65972 5.33004 7893 ft 278 kts 272°
2026-05-05 10:37 50.66027 5.29961 7886 ft 278 kts 272°
2026-05-05 10:38 50.66081 5.26910 7894 ft 278 kts 272°
2026-05-05 10:38 50.66134 5.23863 7894 ft 278 kts 272°
2026-05-05 10:38 50.66187 5.20816 7897 ft 279 kts 272°
2026-05-05 10:38 50.66237 5.17799 7895 ft 279 kts 272°
2026-05-05 10:39 50.66089 5.14762 7898 ft 279 kts 252°
2026-05-05 10:39 50.65364 5.11902 7737 ft 282 kts 245°
2026-05-05 10:39 50.64507 5.09099 7392 ft 286 kts 243°
2026-05-05 10:39 50.63652 5.06244 7051 ft 289 kts 245°
2026-05-05 10:40 50.62840 5.03383 6996 ft 282 kts 245°
2026-05-05 10:40 50.62049 5.00610 6985 ft 273 kts 245°
2026-05-05 10:40 50.61252 4.97869 6985 ft 274 kts 245°
2026-05-05 10:40 50.60453 4.95129 6981 ft 276 kts 245°
2026-05-05 10:41 50.59667 4.92418 6988 ft 277 kts 245°
2026-05-05 10:41 50.58869 4.89669 6992 ft 276 kts 245°
2026-05-05 10:41 50.58069 4.86918 6990 ft 277 kts 245°
2026-05-05 10:41 50.57269 4.84171 6992 ft 276 kts 245°
2026-05-05 10:42 50.55665 4.78673 6997 ft 277 kts 245°
2026-05-05 10:42 50.54861 4.75921 7000 ft 277 kts 245°
2026-05-05 10:42 50.54056 4.73171 7002 ft 277 kts 245°
2026-05-05 10:43 50.53259 4.70452 7003 ft 278 kts 245°
2026-05-05 10:43 50.52454 4.67708 6996 ft 273 kts 245°
2026-05-05 10:43 50.51674 4.65048 6404 ft 264 kts 245°
2026-05-05 10:43 50.50926 4.62501 5520 ft 251 kts 245°
2026-05-05 10:44 50.50201 4.60039 4435 ft 244 kts 245°
2026-05-05 10:44 50.49505 4.57680 3472 ft 230 kts 245°
2026-05-05 10:44 50.48874 4.55541 2980 ft 200 kts 245°
2026-05-05 10:44 50.48368 4.53626 2570 ft 181 kts 251°
2026-05-05 10:45 50.47911 4.51945 2485 ft 154 kts 248°
2026-05-05 10:45 50.47486 4.50418 2119 ft 154 kts 248°
2026-05-05 10:45 50.46988 4.48806 1153 ft 180 kts 246°
2026-05-05 10:45 50.46490 4.47055 833 ft 176 kts 250°
2026-05-05 10:46 50.45982 4.45285 965 ft 182 kts 249°
2026-05-05 10:46 50.45481 4.43478 1469 ft 174 kts 249°
2026-05-05 10:46 50.45004 4.41728 1894 ft 180 kts 250°
2026-05-05 10:46 50.44548 4.39829 2222 ft 190 kts 253°
2026-05-05 10:47 50.44136 4.37836 2597 ft 196 kts 253°
2026-05-05 10:47 50.43718 4.35740 2882 ft 206 kts 255°
2026-05-05 10:47 50.43411 4.33532 3290 ft 209 kts 262°
2026-05-05 10:47 50.43366 4.31269 3587 ft 215 kts 275°
2026-05-05 10:48 50.43675 4.28922 3718 ft 226 kts 289°
2026-05-05 10:48 50.44426 4.26706 3720 ft 235 kts 308°
2026-05-05 10:48 50.45657 4.24996 3734 ft 240 kts 331°
2026-05-05 10:48 50.47240 4.24086 3432 ft 251 kts 351°
2026-05-05 10:49 50.49034 4.24174 2728 ft 267 kts 12°
2026-05-05 10:49 50.50745 4.25069 2860 ft 248 kts 26°
2026-05-05 10:49 50.52084 4.26554 3358 ft 226 kts 42°
2026-05-05 10:49 50.53075 4.28320 3827 ft 212 kts 54°
2026-05-05 10:50 50.54166 4.29916 3786 ft 227 kts 29°
2026-05-05 10:50 50.55746 4.30395 3657 ft 241 kts 358°
2026-05-05 10:50 50.57349 4.29488 3542 ft 253 kts 328°
2026-05-05 10:50 50.58512 4.27372 3410 ft 263 kts 300°
2026-05-05 10:51 50.58910 4.24559 3286 ft 269 kts 270°
2026-05-05 10:51 50.58527 4.21871 3140 ft 235 kts 251°
2026-05-05 10:51 50.57968 4.19624 2967 ft 208 kts 249°
2026-05-05 10:51 50.57442 4.17613 2777 ft 191 kts 248°
2026-05-05 10:52 50.56945 4.15748 2579 ft 180 kts 248°
2026-05-05 10:52 50.56466 4.13990 2392 ft 175 kts 248°
2026-05-05 10:52 50.55991 4.12258 2206 ft 170 kts 249°
2026-05-05 10:52 50.55529 4.10570 2025 ft 166 kts 248°
2026-05-05 10:53 50.55062 4.08891 1940 ft 164 kts 248°
2026-05-05 10:53 50.54583 4.07179 2262 ft 184 kts 248°
2026-05-05 10:53 50.54059 4.05244 2853 ft 201 kts 248°
2026-05-05 10:53 50.53128 4.03443 3016 ft 234 kts 215°
2026-05-05 10:54 50.51555 4.03025 2855 ft 242 kts 164°
2026-05-05 10:54 50.50033 4.04011 2984 ft 241 kts 158°
2026-05-05 10:54 50.48434 4.04767 3013 ft 245 kts 164°
2026-05-05 10:54 50.46761 4.05294 3025 ft 246 kts 169°
2026-05-05 10:55 50.45063 4.05663 3019 ft 249 kts 170°
2026-05-05 10:55 50.43366 4.06018 3000 ft 245 kts 168°
2026-05-05 10:55 50.41850 4.07075 2927 ft 239 kts 140°
2026-05-05 10:55 50.40909 4.09124 2977 ft 233 kts 121°
2026-05-05 10:56 50.39915 4.11190 3019 ft 244 kts 127°
2026-05-05 10:56 50.38772 4.13289 3022 ft 261 kts 132°
2026-05-05 10:56 50.37475 4.15346 3019 ft 265 kts 131°
2026-05-05 10:56 50.36443 4.17695 2992 ft 265 kts 117°
2026-05-05 10:57 50.35547 4.20219 3017 ft 265 kts 119°
2026-05-05 10:57 50.34609 4.22599 3005 ft 237 kts 121°
2026-05-05 10:57 50.33705 4.24603 2994 ft 230 kts 124°
2026-05-05 10:57 50.32733 4.26722 2999 ft 250 kts 122°
2026-05-05 10:58 50.31743 4.29041 3002 ft 261 kts 121°
2026-05-05 10:58 50.31010 4.31641 2999 ft 260 kts 109°
2026-05-05 10:58 50.30592 4.34387 2979 ft 261 kts 97°
2026-05-05 10:58 50.30495 4.37174 3003 ft 260 kts 92°
2026-05-05 10:59 50.30534 4.40001 2987 ft 261 kts 86°
2026-05-05 10:59 50.30688 4.42831 2997 ft 262 kts 84°
2026-05-05 10:59 50.30872 4.45646 3008 ft 260 kts 86°
2026-05-05 10:59 50.30872 4.48477 3021 ft 261 kts 95°
2026-05-05 11:00 50.30681 4.51307 3014 ft 263 kts 96°
2026-05-05 11:00 50.30677 4.54152 2989 ft 262 kts 86°
2026-05-05 11:00 50.30944 4.56994 3000 ft 268 kts 80°
2026-05-05 11:00 50.31343 4.59876 2993 ft 270 kts 76°
2026-05-05 11:01 50.31846 4.62713 3010 ft 273 kts 76°
2026-05-05 11:01 50.32393 4.65522 3006 ft 274 kts 75°
2026-05-05 11:01 50.32950 4.68369 2997 ft 274 kts 75°
2026-05-05 11:01 50.33534 4.71206 2998 ft 274 kts 73°
2026-05-05 11:02 50.34132 4.74043 2990 ft 275 kts 73°
2026-05-05 11:02 50.34815 4.76837 2997 ft 275 kts 71°
2026-05-05 11:02 50.35530 4.79610 2999 ft 274 kts 69°
2026-05-05 11:02 50.36195 4.82415 2993 ft 275 kts 73°
2026-05-05 11:03 50.36751 4.85310 2988 ft 283 kts 75°
2026-05-05 11:03 50.37289 4.88307 2978 ft 298 kts 77°
2026-05-05 11:03 50.37763 4.91512 2977 ft 307 kts 79°
2026-05-05 11:03 50.38348 4.94709 2933 ft 306 kts 69°
2026-05-05 11:04 50.39096 4.97698 3055 ft 284 kts 68°
2026-05-05 11:04 50.40187 5.00178 2987 ft 273 kts 44°
2026-05-05 11:04 50.41750 5.01799 3002 ft 271 kts 27°
2026-05-05 11:04 50.43360 5.02988 2983 ft 235 kts 24°
2026-05-05 11:05 50.44737 5.03940 2964 ft 200 kts 27°
2026-05-05 11:05 50.45933 5.04870 2998 ft 187 kts 24°
2026-05-05 11:05 50.47151 5.05553 2981 ft 185 kts 17°
2026-05-05 11:05 50.48384 5.06056 2963 ft 184 kts 18°
2026-05-05 11:06 50.49610 5.06638 2970 ft 184 kts 11°
2026-05-05 11:06 50.50863 5.07089 2961 ft 183 kts 13°
2026-05-05 11:06 50.52141 5.07392 2985 ft 186 kts
2026-05-05 11:06 50.53405 5.07758 2975 ft 186 kts 15°
2026-05-05 11:07 50.54686 5.07854 2987 ft 185 kts 349°
2026-05-05 11:07 50.55810 5.06845 2945 ft 186 kts 307°
2026-05-05 11:07 50.56231 5.04875 2975 ft 189 kts 270°
2026-05-05 11:07 50.55912 5.02822 2990 ft 194 kts 250°
2026-05-05 11:08 50.55454 5.00896 2989 ft 189 kts 248°
2026-05-05 11:08 50.54931 4.98976 3005 ft 191 kts 246°
2026-05-05 11:08 50.54358 4.97085 2983 ft 192 kts 241°
2026-05-05 11:08 50.53827 4.95159 2992 ft 192 kts 246°
2026-05-05 11:09 50.53383 4.93185 2971 ft 184 kts 250°
2026-05-05 11:09 50.52948 4.91335 2950 ft 176 kts 245°
2026-05-05 11:09 50.52458 4.89480 2994 ft 190 kts 247°
2026-05-05 11:09 50.52034 4.87494 2999 ft 192 kts 256°
2026-05-05 11:10 50.51765 4.85395 3000 ft 196 kts 257°
2026-05-05 11:10 50.51468 4.83309 3003 ft 197 kts 257°
2026-05-05 11:10 50.51183 4.81389 2966 ft 170 kts 255°
2026-05-05 11:10 50.50887 4.79636 2973 ft 166 kts 248°
2026-05-05 11:11 50.50388 4.77992 2712 ft 168 kts 246°
2026-05-05 11:11 50.49911 4.76318 2357 ft 167 kts 246°
2026-05-05 11:11 50.49423 4.74660 2203 ft 166 kts 246°
2026-05-05 11:11 50.48924 4.72991 2193 ft 169 kts 244°
2026-05-05 11:12 50.48423 4.71289 2185 ft 170 kts 245°
2026-05-05 11:12 50.47919 4.69591 2132 ft 173 kts 245°
2026-05-05 11:12 50.47415 4.67907 1949 ft 171 kts 246°
2026-05-05 11:12 50.46913 4.66242 1783 ft 168 kts 245°
2026-05-05 11:13 50.46404 4.64584 1593 ft 168 kts 245°
2026-05-05 11:13 50.45894 4.62932 1608 ft 170 kts 245°
2026-05-05 11:13 50.45496 4.61238 1453 ft 170 kts 263°
2026-05-05 11:13 50.45389 4.59470 1180 ft 161 kts 271°
2026-05-05 11:14 50.45331 4.57725 1292 ft 159 kts 271°
2026-05-05 11:14 50.45344 4.55973 1398 ft 164 kts 275°
2026-05-05 11:14 50.45557 4.54290 1497 ft 161 kts 287°
2026-05-05 11:14 50.45647 4.52553 1521 ft 166 kts 265°
2026-05-05 11:15 50.45664 4.50816 1405 ft 160 kts 281°
2026-05-05 11:15 50.45659 4.49074 1399 ft 163 kts 264°
2026-05-05 11:15 50.45610 4.47324 1354 ft 159 kts 269°
2026-05-05 11:15 50.45384 4.45577 1472 ft 167 kts 250°
2026-05-05 11:16 50.44925 4.43901 1617 ft 168 kts 249°
2026-05-05 11:16 50.44416 4.42265 1622 ft 170 kts 244°
2026-05-05 11:16 50.43844 4.40650 1618 ft 170 kts 244°
2026-05-05 11:16 50.43362 4.39001 1625 ft 170 kts 250°
2026-05-05 11:17 50.42953 4.37313 1618 ft 167 kts 254°
2026-05-05 11:17 50.42676 4.35608 1825 ft 169 kts 258°
2026-05-05 11:17 50.42482 4.33738 2124 ft 185 kts 265°
2026-05-05 11:17 50.42476 4.31590 2492 ft 214 kts 274°
2026-05-05 11:18 50.42790 4.29107 2513 ft 244 kts 288°
2026-05-05 11:18 50.43559 4.26694 2487 ft 248 kts 309°
2026-05-05 11:18 50.44887 4.24963 2538 ft 264 kts 336°
2026-05-05 11:18 50.46813 4.24124 2557 ft 313 kts 357°
2026-05-05 11:19 50.49096 4.24557 2552 ft 349 kts 17°
2026-05-05 11:19 50.51369 4.26127 2552 ft 373 kts 28°
2026-05-05 11:19 50.53704 4.28065 2540 ft 386 kts 28°
2026-05-05 11:19 50.55947 4.30449 2536 ft 394 kts 39°
2026-05-05 11:20 50.57969 4.33376 2522 ft 397 kts 44°
2026-05-05 11:20 50.59807 4.36634 2532 ft 399 kts 51°
2026-05-05 11:20 50.61469 4.40130 2536 ft 400 kts 55°
2026-05-05 11:20 50.62917 4.43892 2509 ft 401 kts 63°
2026-05-05 11:21 50.64078 4.47887 2512 ft 402 kts 66°
2026-05-05 11:21 50.65141 4.51969 2533 ft 402 kts 68°
2026-05-05 11:21 50.66056 4.56141 2508 ft 403 kts 71°
2026-05-05 11:21 50.66897 4.60346 2510 ft 403 kts 73°
2026-05-05 11:22 50.67592 4.64341 2499 ft 404 kts 73°
2026-05-05 11:22 50.68443 4.68673 2509 ft 403 kts 72°
2026-05-05 11:22 50.69139 4.72946 2517 ft 402 kts 76°
2026-05-05 11:22 50.69713 4.77261 2509 ft 402 kts 80°
2026-05-05 11:23 50.69994 4.81634 2473 ft 404 kts 91°
2026-05-05 11:23 50.69486 4.85986 2495 ft 404 kts 102°
2026-05-05 11:23 50.68913 4.90296 2489 ft 403 kts 101°
2026-05-05 11:23 50.68061 4.93990 2420 ft 323 kts 121°
2026-05-05 11:24 50.66370 4.95555 2255 ft 277 kts 180°
2026-05-05 11:24 50.64809 4.94474 2108 ft 237 kts 236°
2026-05-05 11:24 50.64116 4.92427 2185 ft 192 kts 235°
2026-05-05 11:24 50.63428 4.90833 2262 ft 162 kts 238°
2026-05-05 11:25 50.62973 4.89330 2211 ft 145 kts 246°
2026-05-05 11:25 50.62549 4.87907 1981 ft 144 kts 246°
2026-05-05 11:25 50.62110 4.86470 1786 ft 155 kts 245°
2026-05-05 11:25 50.61505 4.84919 2075 ft 160 kts 232°
2026-05-05 11:26 50.60829 4.83642 1777 ft 156 kts 230°
2026-05-05 11:26 50.60136 4.82205 1775 ft 169 kts 235°
2026-05-05 11:26 50.59510 4.80610 1943 ft 175 kts 243°
2026-05-05 11:26 50.58881 4.78923 2052 ft 182 kts 237°
2026-05-05 11:27 50.58134 4.77264 2137 ft 188 kts 236°
2026-05-05 11:27 50.57467 4.75539 2289 ft 174 kts 240°
2026-05-05 11:27 50.56874 4.73995 2158 ft 159 kts 240°
2026-05-05 11:27 50.56436 4.72505 2179 ft 144 kts 246°
2026-05-05 11:28 50.55958 4.70964 1991 ft 167 kts 245°
2026-05-05 11:28 50.55358 4.69381 1706 ft 172 kts 232°
2026-05-05 11:28 50.54587 4.67947 1645 ft 175 kts 230°
2026-05-05 11:28 50.53742 4.66578 1613 ft 174 kts 223°
2026-05-05 11:29 50.52833 4.65313 1621 ft 173 kts 223°
2026-05-05 11:29 50.51896 4.64093 1607 ft 176 kts 220°
2026-05-05 11:29 50.50990 4.62808 1635 ft 172 kts 228°
2026-05-05 11:29 50.50347 4.61246 1599 ft 167 kts 247°
2026-05-05 11:30 50.49853 4.59531 1601 ft 171 kts 246°
2026-05-05 11:30 50.49328 4.57842 1592 ft 167 kts 246°
2026-05-05 11:30 50.48828 4.56280 1468 ft 166 kts 246°
2026-05-05 11:30 50.48336 4.54703 1178 ft 164 kts 250°
2026-05-05 11:31 50.47932 4.52862 1095 ft 182 kts 251°
2026-05-05 11:31 50.47437 4.50860 1119 ft 210 kts 248°
2026-05-05 11:31 50.46925 4.48793 926 ft 192 kts 254°
2026-05-05 11:31 50.46470 4.46966 635 ft 167 kts 249°
2026-05-05 11:32 50.46061 4.45503 602 ft 122 kts 239°
2026-05-05 11:32 50.45742 4.44449 627 ft 89 kts 246°
2026-05-05 11:32 50.45583 4.43912 629 ft 23 kts 246°
2026-05-05 11:32 50.45573 4.43781 626 ft 8 kts 278°
2026-05-05 11:33 50.45565 4.43697 625 ft 6 kts 250°
2026-05-05 11:33 50.45553 4.43686 636 ft 3 kts 199°
2026-05-05 11:33 50.45529 4.43706 636 ft 3 kts 119°
2026-05-05 11:33 50.45539 4.43748 628 ft 4 kts 66°
2026-05-05 11:34 50.45544 4.43765 624 ft 1 kts 63°
2026-05-05 11:34 50.45596 4.43876 630 ft 14 kts 41°
2026-05-05 11:34 50.45667 4.43963 628 ft 14 kts 40°
2026-05-05 11:34 50.45741 4.44085 629 ft 19 kts 50°
2026-05-05 11:35 50.45819 4.44249 622 ft 17 kts 53°
2026-05-05 11:35 50.45883 4.44382 626 ft 13 kts 52°
2026-05-05 11:35 50.45946 4.44534 619 ft 27 kts 60°
2026-05-05 11:35 50.46034 4.44834 611 ft 28 kts 69°
2026-05-05 11:36 50.46105 4.45094 613 ft 24 kts 66°
2026-05-05 11:36 50.46177 4.45330 602 ft 24 kts 63°
2026-05-05 11:36 50.46250 4.45571 599 ft 25 kts 65°
2026-05-05 11:36 50.46323 4.45820 597 ft 25 kts 64°
2026-05-05 11:37 50.46398 4.46073 593 ft 26 kts 66°
2026-05-05 11:37 50.46474 4.46332 590 ft 26 kts 65°
2026-05-05 11:37 50.46531 4.46529 588 ft 8 kts 47°
2026-05-05 11:37 50.46549 4.46548 588 ft 1 kts 26°
2026-05-05 11:38 50.46585 4.46562 587 ft 5 kts